This is the latest recevied weather packets stored in our database for station/object KF6ILA. If no packets are shown the sender has not sent any weather packets the latest 1 day(s).
| Time | Temp. | Humidity | Pressure | Rain* | Wind** | Luminosity | Snow |
|---|---|---|---|---|---|---|---|
| 1777963073 | 5.56° C | 99% | 1011 hPa | 0 mm | 7.15 m/s, 264° | 0 W/m² | - |
| 1777963018 | 5.56° C | 99% | 1011 hPa | 0 mm | 7.15 m/s, 264° | 0 W/m² | - |
| 1777962773 | 5.56° C | 99% | 1010.8 hPa | 0 mm | 6.26 m/s, 259° | 0 W/m² | - |
| 1777962721 | 5.56° C | 99% | 1010.8 hPa | 0 mm | 6.26 m/s, 259° | 0 W/m² | - |
| 1777962424 | 5.56° C | 99% | 1010.5 hPa | 0 mm | 7.15 m/s, 267° | 0 W/m² | - |
| 1777962127 | 5.56° C | 99% | 1010.5 hPa | 0.25 mm | 7.6 m/s, 269° | 0 W/m² | - |
| 1777961830 | 5.56° C | 99% | 1010.6 hPa | 0.25 mm | 8.94 m/s, 266° | 0 W/m² | - |
| 1777961583 | 5.56° C | 98% | 1010.6 hPa | 0.25 mm | 8.94 m/s, 267° | 0 W/m² | - |
| 1777961533 | 5.56° C | 98% | 1010.6 hPa | 0.25 mm | 8.94 m/s, 267° | 0 W/m² | - |
| 1777961235 | 5° C | 98% | 1010.7 hPa | 0.25 mm | 7.15 m/s, 280° | 0 W/m² | - |
| 1777960939 | 5° C | 98% | 1010.6 hPa | 0.25 mm | 7.6 m/s, 277° | 0 W/m² | - |
| 1777960345 | 5° C | 98% | 1010.8 hPa | 0.25 mm | 9.83 m/s, 269° | 0 W/m² | - |
| 1777960048 | 5° C | 98% | 1011 hPa | 0.25 mm | 8.49 m/s, 268° | 0 W/m² | - |
| 1777959751 | 5° C | 98% | 1010.7 hPa | 0.25 mm | 9.39 m/s, 261° | 0 W/m² | - |
| 1777959157 | 5° C | 98% | 1011 hPa | 0.25 mm | 8.05 m/s, 263° | 0 W/m² | - |
| 1777958860 | 5° C | 98% | 1010.9 hPa | 0.25 mm | 9.83 m/s, 259° | 0 W/m² | - |
| 1777958563 | 5° C | 97% | 1011 hPa | 0 mm | 7.6 m/s, 248° | 0 W/m² | - |
| 1777958266 | 5° C | 97% | 1011 hPa | 0 mm | 8.94 m/s, 251° | 0 W/m² | - |
| 1777957968 | 5° C | 97% | 1011.1 hPa | 0 mm | 7.15 m/s, 257° | 0 W/m² | - |
| 1777957672 | 5° C | 97% | 1011.2 hPa | 0 mm | 5.81 m/s, 266° | 0 W/m² | - |
* Rain latest hour (hover to see other rain measurements)
** Current wind speed in m/s (hover to see current wind gust speed)